| time (UTC) | temp F | wind direction | speed knots | gust knots | rain 1hr in | rain 24hr in | rain mn in | humidity % | barometer mb |
| 20260507201528 | 67 | 38 | 1.7 | 7.0 | 0.00 | 0.00 | 0.00 | 35 | 1015.1 |
| 20260507200023 | 68 | 44 | 6.1 | 9.6 | 0.00 | 0.00 | 0.00 | 37 | 1015.1 |
| 20260507193025 | 67 | 46 | 0.9 | 9.6 | 0.00 | 0.00 | 0.00 | 39 | 1015.2 |
| 20260507191516 | 66 | 192 | 1.7 | 6.1 | 0.00 | 0.00 | 0.00 | 36 | 1015.1 |
| 20260507184512 | 64 | 106 | 3.5 | 10.4 | 0.00 | 0.00 | 0.00 | 38 | 1015.3 |
| 20260507183013 | 65 | 122 | 6.1 | 8.7 | 0.00 | 0.00 | 0.00 | 40 | 1015.3 |
| 20260507181525 | 64 | 328 | 2.6 | 8.7 | 0.00 | 0.00 | 0.00 | 37 | 1015.4 |
| 20260507180023 | 65 | 42 | 1.7 | 6.1 | 0.00 | 0.00 | 0.00 | 38 | 1015.7 |
| 20260507174529 | 65 | 302 | 5.2 | 8.7 | 0.00 | 0.00 | 0.00 | 38 | 1015.8 |
| 20260507171526 | 65 | 219 | 1.7 | 8.7 | 0.00 | 0.00 | 0.00 | 40 | 1016.1 |
| 20260507170017 | 63 | 344 | 2.6 | 5.2 | 0.00 | 0.00 | 0.00 | 43 | 1016.0 |
| 20260507164528 | 62 | 342 | 0.9 | 7.0 | 0.00 | 0.00 | 0.00 | 42 | 1016.0 |
| 20260507163012 | 62 | 350 | 3.5 | 6.1 | 0.00 | 0.00 | 0.00 | 41 | 1016.2 |
| 20260507161527 | 60 | 107 | 0.9 | 3.5 | 0.00 | 0.00 | 0.00 | 41 | 1016.2 |
| 20260507160033 | 60 | 66 | 1.7 | 7.0 | 0.00 | 0.00 | 0.00 | 42 | 1016.3 |
| 20260507154526 | 60 | 61 | 4.3 | 8.7 | 0.00 | 0.00 | 0.00 | 43 | 1016.3 |
| 20260507153022 | 59 | 107 | 4.3 | 10.4 | 0.00 | 0.00 | 0.00 | 48 | 1016.5 |
| 20260507150021 | 60 | 57 | 6.1 | 10.4 | 0.00 | 0.00 | 0.00 | 44 | 1016.3 |
| 20260507144528 | 60 | 69 | 5.2 | 9.6 | 0.00 | 0.00 | 0.00 | 44 | 1016.3 |
| 20260507141537 | 61 | 24 | 1.7 | 2.6 | 0.00 | 0.00 | 0.00 | 39 | 1015.8 |
| 20260507134504 | 58 | 215 | 1.7 | 9.6 | 0.00 | 0.00 | 0.00 | 43 | 1015.5 |
| 20260507133004 | 58 | 226 | 3.5 | 7.0 | 0.00 | 0.00 | 0.00 | 46 | 1015.4 |
| 20260507131508 | 57 | 189 | 1.7 | 1.7 | 0.00 | 0.00 | 0.00 | 50 | 1015.2 |
| 20260507124504 | 55 | 178 | 0.0 | 2.6 | 0.00 | 0.00 | 0.00 | 52 | 1014.9 |
| 20260507123003 | 55 | 125 | 0.0 | 2.6 | 0.00 | 0.00 | 0.00 | 53 | 1014.9 |
| 20260507121504 | 55 | 205 | 0.0 | 7.0 | 0.00 | 0.00 | 0.00 | 54 | 1015.0 |
| 20260507120006 | 54 | 163 | 1.7 | 6.1 | 0.00 | 0.00 | 0.00 | 56 | 1015.0 |
| 20260507111506 | 55 | 133 | 2.6 | 7.0 | 0.00 | 0.00 | 0.00 | 55 | 1014.8 |
| 20260507110006 | 54 | 129 | 3.5 | 6.1 | 0.00 | 0.00 | 0.00 | 57 | 1014.8 |
| 20260507104505 | 54 | 148 | 6.1 | 7.8 | 0.00 | 0.00 | 0.00 | 58 | 1014.7 |
| 20260507103003 | 55 | 125 | 2.6 | 5.2 | 0.00 | 0.00 | 0.00 | 56 | 1014.7 |
| 20260507101503 | 54 | 130 | 5.2 | 6.1 | 0.00 | 0.00 | 0.00 | 57 | 1014.7 |
| 20260507100007 | 56 | 119 | 0.9 | 2.6 | 0.00 | 0.00 | 0.00 | 54 | 1014.5 |
| 20260507094506 | 56 | 165 | 0.9 | 1.7 | 0.00 | 0.00 | 0.00 | 52 | 1014.5 |
| 20260507093009 | 57 | 98 | 0.9 | 1.7 | 0.00 | 0.00 | 0.00 | 52 | 1014.5 |
| 20260507091511 | 58 | 145 | 1.7 | 4.3 | 0.00 | 0.00 | 0.00 | 49 | 1014.3 |
| 20260507090007 | 60 | 192 | 0.0 | 3.5 | 0.00 | 0.00 | 0.00 | 45 | 1014.3 |
| 20260507084504 | 60 | 145 | 1.7 | 4.3 | 0.00 | 0.00 | 0.00 | 45 | 1014.3 |
| 20260507083004 | 60 | 167 | 0.0 | 4.3 | 0.00 | 0.00 | 0.00 | 45 | 1014.4 |
| 20260507081509 | 60 | 153 | 0.9 | 6.1 | 0.00 | 0.00 | 0.00 | 45 | 1014.4 |
| 20260507080007 | 61 | 318 | 0.9 | 2.6 | 0.00 | 0.00 | 0.00 | 43 | 1014.3 |
| 20260507074512 | 62 | 196 | 1.7 | 12.2 | 0.00 | 0.00 | 0.00 | 42 | 1014.2 |
| 20260507073009 | 60 | 272 | 1.7 | 5.2 | 0.00 | 0.00 | 0.00 | 46 | 1014.4 |
| 20260507071520 | 60 | 138 | 0.9 | 3.5 | 0.00 | 0.00 | 0.00 | 46 | 1014.4 |
| 20260507070013 | 61 | 244 | 0.9 | 1.7 | 0.00 | 0.00 | 0.00 | 44 | 1014.4 |
| 20260507064507 | 61 | 25 | 0.0 | 3.5 | 0.00 | 0.00 | 0.00 | 44 | 1014.4 |
| 20260507063016 | 61 | 41 | 0.0 | 1.7 | 0.00 | 0.00 | 0.00 | 43 | 1014.4 |
| 20260507061514 | 62 | 254 | 0.9 | 2.6 | 0.00 | 0.00 | 0.00 | 42 | 1014.5 |
| 20260507060011 | 63 | 21 | 0.0 | 6.1 | 0.00 | 0.00 | 0.00 | 40 | 1014.5 |
| 20260507054511 | 63 | 328 | 0.0 | 6.1 | 0.00 | 0.00 | 0.00 | 40 | 1014.6 |
| 20260507053013 | 63 | 236 | 0.0 | 3.5 | 0.00 | 0.00 | 0.00 | 41 | 1014.6 |
| 20260507050032 | 64 | 321 | 4.3 | 9.6 | 0.00 | 0.00 | 0.00 | 40 | 1014.4 |
| 20260507043017 | 64 | 236 | 4.3 | 8.7 | 0.00 | 0.00 | 0.00 | 44 | 1014.1 |
| 20260507040019 | 64 | 215 | 0.9 | 3.5 | 0.00 | 0.00 | 0.00 | 44 | 1014.0 |
| 20260507034516 | 64 | 225 | 0.9 | 2.6 | 0.00 | 0.00 | 0.00 | 43 | 1013.8 |
| 20260507033021 | 64 | 296 | 0.9 | 3.5 | 0.00 | 0.00 | 0.00 | 43 | 1013.6 |
| 20260507031519 | 64 | 260 | 0.9 | 3.5 | 0.00 | 0.00 | 0.00 | 44 | 1013.5 |
| 20260507030027 | 65 | 182 | 0.0 | 1.7 | 0.00 | 0.00 | 0.00 | 41 | 1013.4 |
| 20260507024523 | 65 | 229 | 0.0 | 2.6 | 0.00 | 0.00 | 0.00 | 40 | 1013.6 |
| 20260507023019 | 66 | 242 | 0.0 | 10.4 | 0.00 | 0.00 | 0.00 | 38 | 1013.6 |
| 20260507021522 | 67 | 277 | 3.5 | 7.8 | 0.00 | 0.00 | 0.00 | 35 | 1013.7 |
| 20260507020020 | 67 | 234 | 4.3 | 7.8 | 0.00 | 0.00 | 0.00 | 36 | 1013.7 |
| 20260507013025 | 69 | 244 | 3.5 | 7.8 | 0.00 | 0.00 | 0.00 | 34 | 1013.5 |
| 20260507011522 | 70 | 238 | 4.3 | 12.2 | 0.00 | 0.00 | 0.00 | 32 | 1013.5 |
| 20260507010021 | 70 | 251 | 1.7 | 11.3 | 0.00 | 0.00 | 0.00 | 31 | 1013.6 |
| 20260507003025 | 72 | 226 | 6.1 | 13.9 | 0.00 | 0.00 | 0.00 | 30 | 1013.7 |
| 20260507001526 | 72 | 235 | 6.1 | 11.3 | 0.00 | 0.00 | 0.00 | 32 | 1013.6 |
| 20260507000023 | 72 | 244 | 8.7 | 13.0 | 0.00 | 0.00 | 0.00 | 32 | 1013.6 |
| 20260506234527 | 72 | 313 | 6.1 | 14.8 | 0.00 | 0.00 | 0.00 | 31 | 1013.6 |
| 20260506233026 | 74 | 253 | 7.0 | 14.8 | 0.00 | 0.00 | 0.00 | 30 | 1013.6 |
| 20260506230027 | 72 | 255 | 9.6 | 13.0 | 0.00 | 0.00 | 0.00 | 32 | 1013.8 |
| 20260506224521 | 72 | 271 | 5.2 | 10.4 | 0.00 | 0.00 | 0.00 | 31 | 1014.0 |
| 20260506223019 | 71 | 224 | 8.7 | 14.8 | 0.00 | 0.00 | 0.00 | 33 | 1014.1 |
| 20260506221517 | 72 | 256 | 3.5 | 12.2 | 0.00 | 0.00 | 0.00 | 35 | 1014.2 |
| 20260506220017 | 71 | 244 | 7.0 | 11.3 | 0.00 | 0.00 | 0.00 | 36 | 1014.4 |
| 20260506213009 | 72 | 262 | 5.2 | 17.4 | 0.00 | 0.00 | 0.00 | 34 | 1015.0 |
| 20260506211530 | 71 | 260 | 6.1 | 10.4 | 0.00 | 0.00 | 0.00 | 35 | 1015.2 |
| 20260506210028 | 71 | 290 | 4.3 | 16.5 | 0.00 | 0.00 | 0.00 | 34 | 1015.3 |
| 20260506204523 | 70 | 248 | 9.6 | 18.2 | 0.00 | 0.00 | 0.00 | 35 | 1015.2 |
| 20260506203023 | 70 | 220 | 7.8 | 15.6 | 0.00 | 0.00 | 0.00 | 33 | 1015.1 |